Dewpoint
69 71 73 75 75 75 76 76 76 75 75 75 75 75 74 74 74 74 74 74 74 74 73 73 73 73 73 73 72 72 72 72 71 71 71 71 71 71 70 70 70 70 70 70 70 71 71 69 69 69 68 69 69 69 69 69 68 68 68 68 67 67 67 67 67 67 66 67 67 66 67 68 68 68 67 66 66 66 66 66 66 64 64 65 66
70 71 73 74 75 75 76 75 75 75 75 75 75 75 75 74 74 74 74 74 74 74 73 73 73 73 73 73 72 72 73 72 72 71 71 71 71 70 69 69 69 69 70 70 70 71 70 70 69 69 69 68 69 69 69 69 68 67 67 67 67 67 67 67 67 67 67 67 67 67 67 67 67 68 67 67 66 66 66 66 66 64 64 65 66
70 71 73 74 75 75 75 75 75 75 75 75 75 75 75 74 74 74 74 74 74 74 73 73 73 73 73 72 72 72 72 72 71 71 71 71 71 70 69 69 69 70 70 70 70 70 70 69 69 69 69 69 69 69 69 69 68 68 67 67 67 67 68 67 67 67 67 67 67 67 67 66 66 66 66 66 65 64 64 65 65 66 63 66 66
70 71 73 75 75 75 75 75 75 75 75 75 75 75 75 74 74 74 74 74 74 74 73 73 73 73 73 72 72 72 71 71 71 71 71 70 70 70 69 69 69 70 70 70 70 70 69 69 68 68 67 68 69 69 69 69 68 68 68 68 68 67 67 68 67 67 67 67 67 66 66 64 64 66 66 66 65 65 66 66 65 66 65 65 65
70 71 73 74 74 74 75 75 74 75 74 74 75 75 75 74 74 74 74 74 74 73 73 73 73 73 72 72 72 72 71 71 71 71 71 70 70 70 69 69 69 70 70 70 69 69 68 68 67 68 68 68 68 69 68 68 68 68 68 68 68 68 68 67 67 67 67 67 67 66 63 63 63 65 66 65 65 64 64 64 65 64 64 65 65
70 72 72 73 73 74 74 74 75 75 75 75 75 75 74 74 74 74 74 74 74 73 73 73 73 72 72 72 72 71 71 71 71 71 70 70 71 69 69 68 69 69 69 69 68 68 67 67 67 69 70 70 69 69 68 68 68 68 69 68 68 68 68 67 67 67 67 68 68 66 64 64 64 64 65 65 64 65 65 64 64 64 64 64 64
70 70 72 73 73 74 74 74 74 75 75 75 74 74 74 74 74 74 74 74 73 74 73 72 72 72 72 72 71 71 71 70 70 70 70 70 70 71 69 68 68 67 67 67 67 67 67 67 68 70 70 70 70 69 69 69 69 68 68 68 68 68 68 68 68 67 68 67 67 65 64 64 63 62 65 65 64 63 62 61 64 65 65 64 64
68 69 71 72 73 74 74 74 74 74 74 74 74 74 74 74 74 74 74 74 74 73 73 72 72 72 72 71 71 71 70 70 70 70 70 70 70 70 70 69 68 67 67 66 66 66 66 67 69 69 69 68 68 69 70 70 69 69 69 68 68 68 68 68 67 66 67 67 67 66 62 63 64 62 64 64 65 65 66 66 65 65 65 65 64
67 69 70 72 73 74 74 74 74 74 74 74 74 74 74 74 74 73 73 73 73 73 73 72 72 72 72 71 71 70 70 70 70 69 69 70 69 69 70 69 68 68 68 70 70 70 68 68 68 67 67 68 68 69 69 70 69 68 68 68 67 68 68 68 67 66 67 67 66 64 64 64 63 63 65 65 64 65 66 65 65 64 65 65 64
66 68 70 72 73 74 74 74 74 73 73 73 73 73 73 73 73 73 73 73 73 73 72 72 72 72 71 71 71 70 70 70 70 69 70 69 69 69 69 68 68 68 68 68 68 68 68 68 68 68 68 68 68 70 69 69 68 68 68 68 68 68 68 67 67 65 65 65 63 63 63 65 63 63 64 65 66 67 66 65 66 64 65 64 64
66 68 70 72 73 73 73 73 73 73 73 73 73 73 73 73 73 73 73 73 73 72 72 72 72 71 71 71 71 70 70 70 70 70 69 69 69 69 68 68 68 69 69 69 69 70 70 69 69 69 69 69 69 68 69 68 68 67 68 68 67 66 67 67 67 63 61 64 64 65 66 67 62 63 65 65 65 65 65 65 65 64 63 63 63
67 69 70 72 74 73 73 73 73 73 73 73 73 73 73 73 73 73 73 73 72 72 72 72 72 72 71 71 71 70 70 70 70 70 69 69 69 68 68 68 68 68 69 69 70 70 70 70 69 69 69 68 68 68 68 68 68 67 67 67 67 67 67 66 65 64 62 64 64 64 63 62 63 63 65 64 63 63 64 64 65 65 65 64 63
68 69 71 72 72 73 73 73 73 73 73 73 73 73 73 73 73 73 73 72 72 72 72 72 72 72 72 71 71 71 70 70 70 69 69 69 69 68 68 68 68 68 68 69 69 69 69 69 69 69 68 68 67 67 67 67 67 67 67 67 67 66 66 66 64 62 62 63 63 63 62 63 62 64 64 64 64 64 63 63 64 64 64 63 63
68 69 70 71 72 73 73 73 73 73 73 73 73 73 73 73 73 73 73 72 72 72 72 72 72 72 72 72 72 71 71 71 70 69 69 69 69 68 68 68 68 67 67 68 68 69 69 69 68 68 67 66 66 66 67 67 67 67 67 66 66 66 67 66 65 63 62 62 63 63 63 64 63 65 64 64 63 63 63 63 64 63 63 62 62
68 69 70 71 72 72 74 73 73 73 73 73 73 73 73 73 72 72 72 72 72 72 72 72 72 72 72 72 72 72 71 70 70 70 70 69 69 69 68 68 68 67 67 68 68 69 69 68 68 68 67 67 67 67 65 65 66 67 67 67 67 67 67 66 64 63 62 63 64 64 63 63 66 65 64 63 63 62 63 62 61 62 62 63 63
68 69 70 71 71 72 72 73 73 73 73 73 73 73 73 73 73 73 73 73 73 72 73 72 72 72 72 72 72 72 71 70 70 70 71 70 69 69 68 68 67 67 67 68 68 68 68 68 68 67 67 67 66 65 66 66 66 67 68 68 68 67 68 67 66 64 63 63 63 64 64 64 67 65 64 63 62 62 62 62 62 62 63 63 63
69 69 70 70 71 71 72 72 73 73 73 73 73 73 73 73 73 73 73 73 73 73 73 73 73 73 72 72 72 72 72 71 70 70 70 70 69 69 69 68 68 67 67 68 68 68 68 68 68 67 67 67 66 66 67 67 68 68 68 68 69 68 69 68 66 65 62 63 63 63 64 64 66 65 64 63 62 62 62 62 62 62 62 62 64
69 70 69 69 70 70 71 72 72 72 71 72 73 72 72 72 72 72 72 73 73 73 73 73 72 72 72 72 72 72 72 71 71 70 70 70 71 70 69 68 68 67 68 68 68 68 68 68 68 68 67 67 66 65 67 66 68 68 68 69 69 69 70 69 67 63 63 64 63 64 65 67 66 65 64 63 62 61 62 62 61 61 61 62 62
69 69 69 69 69 70 70 70 71 71 71 71 71 72 72 72 72 72 72 72 72 72 72 72 72 72 72 72 71 71 71 71 71 71 71 70 70 70 70 69 68 68 68 68 68 68 68 68 68 68 67 67 65 66 67 67 67 68 68 68 69 69 69 69 66 62 63 63 63 64 65 67 66 64 63 63 62 61 61 61 61 61 62 61 61
67 67 67 68 70 69 69 70 70 70 71 71 71 72 72 72 72 72 72 72 72 72 72 72 72 72 72 71 71 71 71 71 71 71 70 70 71 70 69 69 69 68 69 69 68 68 68 68 68 68 68 66 66 67 67 67 67 68 67 68 68 68 67 65 64 62 62 63 64 64 66 67 66 64 64 63 62 61 61 61 61 61 61 61 61
66 66 67 67 69 69 69 69 70 70 70 70 71 71 72 72 72 72 72 72 72 72 72 72 72 72 71 71 71 70 70 70 70 70 70 70 70 70 70 69 69 69 69 69 68 68 68 68 68 68 68 66 66 67 67 67 67 66 68 68 68 67 66 65 63 64 63 64 64 64 67 66 65 65 64 63 62 61 61 61 61 61 61 61 61
65 65 67 67 69 69 68 68 69 70 70 70 71 71 71 71 71 71 71 71 72 72 71 71 72 71 71 71 69 70 69 69 69 71 70 70 70 70 70 69 69 69 69 69 68 69 68 68 68 69 68 67 67 65 65 67 67 68 67 67 65 65 65 65 63 63 63 63 64 66 67 66 65 65 64 63 62 61 61 61 60 61 60 61 61
64 65 66 68 68 68 67 68 69 69 69 70 70 70 70 70 70 70 71 71 71 71 70 70 70 70 70 69 69 68 68 68 68 69 69 70 70 70 70 70 69 69 69 69 69 69 69 68 69 69 69 68 66 63 62 62 63 67 68 66 64 64 64 64 62 63 63 64 64 67 67 66 65 65 64 63 62 61 61 61 61 61 60 60 60
63 64 65 67 67 67 67 68 68 69 69 69 70 69 69 69 70 70 70 70 70 70 69 69 69 69 69 68 69 69 67 66 67 67 68 68 70 70 70 70 70 69 69 70 69 69 68 68 68 68 69 68 64 62 61 61 62 61 62 63 63 62 63 63 61 62 63 65 65 67 66 66 65 65 64 64 63 62 62 61 60 60 60 60 60
65 66 65 66 67 67 68 68 68 68 68 69 69 69 69 68 69 69 69 69 69 68 68 68 68 68 68 68 68 68 67 67 67 67 66 67 68 68 69 68 67 68 70 66 66 68 68 67 67 67 65 64 63 61 60 58 61 60 61 61 62 62 62 63 62 62 63 64 66 67 67 66 66 65 64 64 62 62 62 61 60 60 60 60 60
65 65 65 65 66 67 67 68 68 68 68 69 68 69 69 68 68 68 68 68 68 68 67 67 67 67 68 68 68 67 67 67 65 65 67 66 65 67 68 66 67 67 69 66 66 66 66 66 66 66 65 63 62 60 59 59 59 60 59 59 59 61 62 62 62 63 64 65 66 67 67 67 66 64 64 63 63 63 62 61 60 61 61 60 60
65 64 65 65 66 67 67 67 67 68 68 69 69 69 68 68 68 68 67 68 67 68 68 68 67 67 67 68 66 66 66 66 66 65 66 66 66 65 66 66 65 65 68 64 64 64 66 65 65 65 64 62 60 59 59 59 59 59 59 58 59 60 62 62 62 63 64 65 67 68 67 66 66 64 64 63 62 62 63 61 61 61 61 60 60
65 63 64 64 65 66 67 67 67 67 67 68 68 68 68 68 68 69 68 70 68 67 67 67 66 67 66 66 68 67 66 65 65 66 66 66 65 65 67 67 67 67 67 65 64 63 65 65 64 64 63 61 60 60 60 59 59 59 59 58 59 61 64 61 61 63 64 65 66 67 67 66 66 65 64 63 63 62 63 62 61 61 60 60 60
63 63 63 63 65 66 66 66 66 66 66 68 67 68 68 68 68 68 68 70 67 67 67 67 67 67 67 67 67 65 65 65 65 66 65 66 65 65 66 66 66 66 64 64 64 63 64 64 63 64 64 63 61 61 60 60 61 59 58 58 59 60 61 61 62 63 64 65 66 67 68 67 66 66 64 62 62 62 63 62 62 61 61 60 60
63 62 62 63 64 65 65 65 65 65 66 66 67 67 67 67 67 67 68 69 67 67 67 66 66 67 66 67 67 66 65 66 66 65 64 64 66 66 66 66 66 65 65 64 64 64 63 63 64 63 63 62 60 60 61 60 59 58 58 56 56 58 61 61 62 62 63 64 65 67 68 67 67 66 66 64 63 63 63 62 63 62 61 60 60
62 62 62 62 63 63 64 65 65 67 66 65 66 67 68 67 67 68 68 67 68 67 67 66 65 66 67 67 66 66 65 66 65 64 65 66 65 65 65 66 65 66 65 64 64 64 63 62 63 62 61 60 59 59 60 59 59 57 58 56 55 57 59 61 61 62 62 63 64 66 67 67 67 68 67 65 64 63 63 63 63 63 62 60 61
61 59 60 60 63 63 63 64 65 66 64 64 66 66 66 66 67 67 67 67 68 67 67 67 67 67 67 66 65 65 65 65 64 64 65 64 64 65 65 66 66 66 67 66 64 64 62 62 61 61 60 59 59 59 60 59 59 57 57 56 56 56 57 59 60 61 61 62 64 65 66 66 68 68 68 66 66 66 63 64 64 63 63 61 61
59 58 55 59 61 58 61 61 63 64 61 62 62 64 65 65 66 66 66 67 66 66 65 65 65 65 66 66 66 65 64 64 65 64 65 63 64 65 63 65 66 66 67 67 66 64 62 63 60 60 60 59 61 60 59 60 59 61 61 60 61 60 60 58 58 60 62 62 62 64 65 66 66 68 67 67 67 66 66 65 64 64 63 63 63
57 59 57 57 58 58 60 60 58 59 60 61 61 61 63 63 64 65 67 65 65 65 66 65 66 65 65 65 66 66 66 66 65 64 64 63 64 64 63 63 65 66 66 66 65 64 64 62 61 60 63 58 58 60 61 62 62 63 63 62 62 62 61 60 60 59 62 62 61 62 64 65 66 66 67 68 68 67 66 66 65 64 64 63 63
57 57 57 58 58 60 61 59 57 58 59 59 58 59 60 62 63 64 63 64 64 64 65 65 65 65 65 65 65 66 65 65 65 64 64 64 64 63 63 64 65 65 66 64 64 63 62 63 63 59 60 60 61 63 62 62 62 63 62 63 63 63 62 61 61 61 59 60 63 62 63 63 64 65 66 66 67 67 66 67 66 65 64 64 63
59 59 60 60 61 60 61 61 61 59 59 60 60 60 61 62 63 65 62 63 64 64 64 65 64 64 65 64 64 64 66 65 65 65 64 65 64 64 64 65 65 65 64 63 62 63 63 63 64 64 61 61 61 61 63 62 63 62 62 63 64 64 63 63 63 62 61 60 60 63 62 62 63 64 66 65 66 66 66 67 67 66 66 65 64
60 60 61 61 61 62 61 60 60 60 60 58 57 58 59 61 63 62 62 62 62 63 64 64 64 64 64 64 65 64 65 65 65 65 64 63 65 64 65 64 64 65 64 63 63 63 64 64 64 64 63 61 62 62 61 61 61 62 63 63 64 64 64 64 63 63 62 61 60 60 63 62 63 66 64 64 65 65 66 66 67 67 66 66 66
62 62 62 61 61 62 61 61 61 60 59 59 60 57 58 58 60 61 63 61 62 62 62 63 63 63 64 64 64 64 64 65 65 65 65 65 64 64 65 64 65 64 63 64 64 63 63 63 63 64 64 62 61 62 61 60 62 62 61 63 64 64 64 64 64 64 63 62 62 61 60 61 63 63 63 63 64 65 65 65 66 67 67 66 65
62 62 62 62 63 63 61 61 60 60 60 61 58 54 53 53 54 57 59 61 61 62 62 62 63 62 63 63 64 64 64 64 65 64 64 64 64 63 63 63 65 63 61 63 63 63 62 63 61 63 64 63 63 62 61 61 61 62 63 63 63 63 63 64 64 63 63 63 62 62 60 61 60 61 63 63 63 63 64 64 65 65 65 66 66
62 62 61 62 63 62 60 60 59 59 59 56 54 51 50 53 53 53 54 57 59 60 59 60 61 62 62 62 62 62 63 65 65 64 65 65 64 63 63 63 63 63 61 60 61 62 61 60 61 62 62 62 62 62 62 62 61 61 61 62 63 63 63 63 63 63 64 64 63 62 62 61 61 60 60 61 63 64 63 63 64 64 64 65 66
61 61 61 62 62 61 59 58 60 60 56 55 54 54 52 54 52 52 53 54 54 55 55 55 54 55 57 60 62 61 62 62 63 64 63 66 64 62 63 63 63 63 62 61 61 63 62 61 61 60 61 59 60 61 60 60 59 57 59 60 60 62 64 63 62 63 63 64 63 63 62 61 61 61 61 61 61 62 65 64 63 63 64 64 65
60 60 61 62 62 62 59 59 59 58 58 56 55 56 56 54 51 52 50 54 52 50 50 51 53 55 55 56 57 57 58 59 60 61 61 62 64 63 63 63 64 63 63 64 63 62 62 60 60 60 60 59 59 60 60 59 57 56 56 57 58 60 63 62 62 63 63 64 63 62 63 62 61 62 62 61 61 62 62 65 65 63 63 62 63
60 60 62 62 62 62 59 59 59 58 58 59 58 55 55 56 54 52 51 52 52 52 51 53 55 54 56 58 59 58 57 55 56 58 59 58 62 63 62 61 63 63 63 63 62 61 61 60 60 59 59 60 59 60 60 59 57 58 58 55 55 55 57 59 61 62 63 64 63 62 63 64 62 64 64 63 62 63 62 62 63 64 64 63 63
60 61 62 62 63 62 59 59 58 59 59 58 57 56 56 55 53 52 52 51 51 55 55 56 55 54 54 55 56 55 55 54 55 56 55 56 59 60 61 61 62 63 63 62 61 61 61 61 60 60 59 58 57 59 60 59 59 57 54 54 55 53 51 54 57 59 63 64 61 61 64 63 65 64 64 64 63 63 63 63 62 63 63 63 63
60 61 62 63 63 61 59 58 58 59 57 58 56 55 53 52 52 52 53 52 53 52 52 52 54 56 56 57 57 57 56 55 56 55 55 54 57 58 58 59 60 62 61 62 61 61 60 60 60 60 59 58 57 59 61 62 61 61 57 54 51 51 52 55 55 56 61 61 63 64 64 64 63 64 63 64 65 64 64 66 64 64 63 63 63
60 61 62 63 63 61 59 59 59 58 58 56 55 53 51 49 49 48 48 50 51 50 50 52 53 53 54 55 54 54 56 56 54 55 56 57 55 55 57 55 54 55 57 59 61 61 60 60 59 59 59 58 58 57 59 60 60 60 60 59 56 54 54 56 54 52 57 61 61 62 63 65 65 64 63 64 64 65 64 63 63 63 64 64 64
59 59 59 59 60 62 59 58 58 57 58 56 56 55 51 49 48 48 49 50 49 50 53 54 55 55 55 55 55 55 55 54 55 54 54 54 52 51 50 54 55 55 56 56 56 56 56 59 60 59 58 59 58 57 57 57 59 59 60 59 60 59 59 55 52 54 52 55 58 60 62 64 65 64 62 60 60 63 63 63 63 64 64 64 63
59 58 58 58 59 60 61 58 58 58 58 57 57 55 51 50 49 49 51 52 52 51 52 53 54 55 54 54 54 55 53 52 51 51 51 51 51 49 48 50 52 53 55 55 56 57 57 57 58 58 59 58 58 58 57 58 56 56 58 57 59 59 58 59 58 55 53 51 53 57 60 62 63 62 62 62 62 62 62 64 64 63 63 65 65
58 57 58 58 59 59 60 59 58 57 58 57 57 55 53 49 48 50 54 53 52 53 54 55 55 55 54 55 53 52 52 51 49 49 49 50 53 51 50 48 49 51 53 53 54 55 55 55 55 55 54 54 56 56 57 56 56 57 57 57 58 58 59 58 59 57 53 51 51 52 54 59 61 61 61 61 60 58 56 59 63 63 61 62 64
58 58 58 58 58 59 60 59 58 57 58 57 56 54 53 51 49 53 53 52 52 52 52 53 54 55 54 54 53 52 50 50 50 50 51 52 51 50 49 51 51 52 52 52 52 52 52 52 54 54 53 52 53 53 54 54 52 53 55 57 56 57 56 55 56 56 55 53 50 52 49 45 43 51 59 60 60 57 55 56 59 61 62 62 61
58 59 59 59 59 59 60 60 58 57 58 55 55 53 52 52 51 53 51 51 50 51 52 53 54 52 52 51 51 51 50 51 51 51 50 51 52 53 50 51 51 54 52 50 51 52 52 52 53 53 52 51 51 50 50 51 50 49 49 50 50 50 49 48 47 50 48 46 46 46 45 42 41 42 46 59 59 57 54 55 56 57 57 57 57